Weather History for Saint Paul Island, AK

Change the Weather History Date:

Wednesday, August 7, 2013

  Actual Average Record
Temperature  
Mean Temperature 49 °F 49 °F  
Max Temperature 53 °F 52 °F 60 °F (1969)
Min Temperature 45 °F 46 °F 35 °F (1966)
Degree Days  
Heating Degree Days 16 16  
Month to date heating degree days 99 113  
Since 1 June heating degree days 1360 1345  
Since 1 July heating degree days 650 666  
Cooling Degree Days 0    
Month to date cooling degree days 0  
Year to date cooling degree days 0  
Since 1 June cooling degree days 0  
Moisture  
Dew Point 48 °F    
Average Humidity 97    
Maximum Humidity 100    
Minimum Humidity 86    
Precipitation  
Precipitation 0.22 in 0.08 in 0.82 in (2010)
Month to date precipitation 0.28 0.60  
Year to date precipitation 10.63 9.96  
Snow  
Snow 0.00 in 0.00 in - ()
Month to date snowfall 0.0 0.0  
Since 1 June snowfall 0.0 0.0  
Since 1 July snowfall 0.0 0.0  
Snow Depth 0.00 in    
Sea Level Pressure  
Sea Level Pressure 29.49 in    
Wind  
Wind Speed 7 mph (West)    
Max Wind Speed 15 mph    
Max Gust Speed 17 mph    
Visibility 8 miles    
Events Rain    
T = Trace of Precipitation, MM = Missing Value Source: NWS Daily Summary

Daily Weather History Graph

Daily Weather History Graph

Search for Another Location

Airport:

Trip Planner

Search our weather history database for the weather conditions in past years. The results will help you decide how hot, cold, wet, or windy it might be!

Date:

Astronomy

Aug. 07, 2013 Rise Set
Actual Time 7:32 AM AKDT 11:19 PM AKDT
Civil Twilight 6:43 AM AKDT 12:07 AM AKDT
Nautical Twilight 5:33 AM AKDT 1:16 AM AKDT
Astronomical Twilight 3:59 AM AKDT 2:54 AM AKDT
Moon 9:00 AM AKDT (8/7) 11:00 PM AKDT (8/7)
Length of Visible Light 17h 23m
Length of Day
15h 47m
New Moon, 1% of the Moon is Illuminated
Aug 7
New Moon
Aug 14
First Quarter
Aug 20
Full
Aug 28
Last Quarter
Sep 5
New

Hourly Weather History & Observations

Time (AKDT) Temp. Windchill Dew Point Humidity Pressure Visibility Wind Dir Wind Speed Gust Speed Precip Events Conditions
12:53 AM 46.9 °F - 46.9 °F 100% 29.62 in 10.0 mi West 5.8 mph - N/A   Overcast
1:42 AM 46.4 °F 45.2 °F 46.4 °F 100% 29.61 in 10.0 mi WNW 3.5 mph - N/A   Overcast
1:53 AM 46.9 °F - 46.9 °F 100% 29.61 in 10.0 mi West 4.6 mph - N/A   Overcast
2:53 AM 48.0 °F - 46.0 °F 93% 29.60 in 10.0 mi NW 4.6 mph - N/A   Overcast
3:53 AM 46.0 °F 43.9 °F 46.0 °F 100% 29.59 in 10.0 mi West 4.6 mph - N/A   Overcast
4:11 AM 46.4 °F 43.5 °F 46.4 °F 100% 29.59 in 1.8 mi West 5.8 mph - N/A   Overcast
4:28 AM 44.6 °F 42.2 °F 44.6 °F 100% 29.57 in 3.0 mi West 4.6 mph - N/A   Overcast
4:46 AM 46.4 °F 44.3 °F 46.4 °F 100% 29.57 in 9.0 mi West 4.6 mph - N/A   Overcast
4:53 AM 46.0 °F 43.9 °F 46.0 °F 100% 29.57 in 6.0 mi West 4.6 mph - N/A   Overcast
5:53 AM 46.9 °F - 46.9 °F 100% 29.56 in 10.0 mi NW 6.9 mph - N/A   Overcast
6:10 AM 46.4 °F 43.5 °F 46.4 °F 100% 29.55 in 10.0 mi NW 5.8 mph - N/A   Overcast
6:53 AM 46.9 °F - 46.9 °F 100% 29.56 in 6.0 mi WNW 5.8 mph - N/A   Overcast
7:53 AM 46.9 °F - 46.9 °F 100% 29.55 in 6.0 mi NW 4.6 mph - N/A   Overcast
8:53 AM 48.0 °F - 48.0 °F 100% 29.53 in 10.0 mi West 3.5 mph - N/A   Overcast
9:53 AM 48.9 °F - 46.9 °F 93% 29.52 in 10.0 mi NW 8.1 mph - N/A   Overcast
10:53 AM 48.9 °F - 46.9 °F 93% 29.51 in 10.0 mi WNW 6.9 mph - N/A   Overcast
11:53 AM 51.1 °F - 48.0 °F 89% 29.50 in 10.0 mi West 9.2 mph - N/A   Overcast
12:18 PM 51.8 °F - 48.2 °F 88% 29.49 in 10.0 mi WNW 8.1 mph - N/A   Overcast
12:53 PM 52.0 °F - 48.0 °F 86% 29.49 in 10.0 mi WNW 10.4 mph - N/A   Overcast
1:53 PM 51.1 °F - 48.0 °F 89% 29.49 in 10.0 mi West 10.4 mph - N/A   Overcast
2:53 PM 51.1 °F - 48.0 °F 89% 29.47 in 10.0 mi WSW 9.2 mph - N/A   Overcast
3:00 PM 51.8 °F - 48.2 °F 88% 29.47 in 10.0 mi WSW 8.1 mph - N/A   Overcast
3:53 PM 48.9 °F - 48.0 °F 97% 29.46 in 10.0 mi West 9.2 mph - N/A   Overcast
4:04 PM 50.0 °F - 48.2 °F 94% 29.45 in 10.0 mi West 6.9 mph - 0.00 in Rain Light Rain
4:14 PM 50.0 °F - 48.2 °F 94% 29.45 in 10.0 mi West 8.1 mph - 0.00 in Rain Light Rain
4:26 PM 50.0 °F - 48.2 °F 94% 29.45 in 10.0 mi WSW 8.1 mph - 0.00 in Rain Light Rain
4:36 PM 50.0 °F - 48.2 °F 94% 29.44 in 10.0 mi West 8.1 mph - 0.00 in Rain Light Rain
4:53 PM 50.0 °F - 48.9 °F 96% 29.45 in 8.0 mi West 8.1 mph - 0.01 in Rain Light Rain
5:17 PM 48.2 °F - 48.2 °F 100% 29.44 in 5.0 mi West 6.9 mph - 0.02 in Rain Light Rain
5:24 PM 48.2 °F - 48.2 °F 100% 29.45 in 4.0 mi West 10.4 mph - 0.03 in Rain Rain
5:53 PM 48.9 °F - 48.9 °F 100% 29.44 in 6.0 mi West 8.1 mph - 0.09 in Rain Light Rain
6:30 PM 48.2 °F - 48.2 °F 100% 29.44 in 6.0 mi West 9.2 mph - 0.04 in Rain Light Rain
6:53 PM 50.0 °F - 50.0 °F 100% 29.43 in 5.0 mi West 9.2 mph - 0.08 in Rain Light Rain
7:36 PM 51.8 °F - 50.0 °F 94% 29.42 in 10.0 mi NW 13.8 mph - 0.01 in Rain Light Rain
7:53 PM 50.0 °F - 48.9 °F 96% 29.42 in 10.0 mi NW 12.7 mph - 0.02 in Rain Light Rain
8:53 PM 50.0 °F - 50.0 °F 100% 29.42 in 10.0 mi WNW 6.9 mph - 0.02 in Rain Light Rain
9:22 PM 50.0 °F - 48.2 °F 94% 29.41 in 10.0 mi WNW 10.4 mph - 0.00 in   Overcast
9:53 PM 50.0 °F - 48.9 °F 96% 29.42 in 10.0 mi West 8.1 mph - 0.00 in   Overcast
10:53 PM 48.0 °F - 48.0 °F 100% 29.42 in 10.0 mi West 6.9 mph - N/A   Overcast
11:18 PM 48.2 °F - 48.2 °F 100% 29.40 in 4.0 mi West 6.9 mph - N/A   Overcast
11:22 PM 48.2 °F - 48.2 °F 100% 29.40 in 2.5 mi West 8.1 mph - N/A   Overcast
11:30 PM 48.2 °F - 48.2 °F 100% 29.40 in 4.0 mi West 6.9 mph - N/A   Overcast
11:53 PM 45.0 °F 41.8 °F 45.0 °F 100% 29.42 in 10.0 mi West 5.8 mph - N/A   Mostly Cloudy